カタログに戻る

FENGYUN 1C DEB

運用中SSO
NORAD 31338·DEBRIS·🇨🇳 China

打ち上げ May 10, 1999 から Taiyuan Satellite Launch Center

Loading…

次のパス (今後24時間)

TLE

最新Source: Space-Track

元期: Sep 13, 2026, 08:43 UTC

1 31338U 99025BQS 26256.36322022  .00003012  00000-0  13117-2 0  9995
2 31338  98.7025  98.1469 0073013  35.8937 324.7115 14.23317146675617

AllMySatでFENGYUN 1C DEBをリアルタイム追跡

Download on the App Store